| time (UTC) | temp F | wind direction | speed MPH | gust MPH | rain 1hr in | rain 24hr in | rain mn in | humidity % | barometer mb |
| 20260510151554 | 82 | 286 | 0.0 | 3.0 | 0.00 | 0.00 | 0.00 | 9 | 1018.0 |
| 20260510150058 | 81 | 31 | 0.0 | 4.0 | 0.00 | 0.00 | 0.00 | 11 | 1017.9 |
| 20260510144601 | 79 | 107 | 0.0 | 4.0 | 0.00 | 0.00 | 0.00 | 15 | 1017.9 |
| 20260510143110 | 76 | 0 | 0.0 | 3.0 | 0.00 | 0.00 | 0.00 | 14 | 1017.8 |
| 20260510141559 | 76 | 0 | 0.0 | 2.0 | 0.00 | 0.00 | 0.00 | 20 | 1017.6 |
| 20260510140058 | 73 | 0 | 0.0 | 3.0 | 0.00 | 0.00 | 0.00 | 20 | 1017.5 |
| 20260510134606 | 69 | 0 | 0.0 | 1.0 | 0.00 | 0.00 | 0.00 | 21 | 1017.3 |
| 20260510133102 | 67 | 0 | 0.0 | 3.0 | 0.00 | 0.00 | 0.00 | 25 | 1017.2 |
| 20260510131556 | 65 | 0 | 0.0 | 2.0 | 0.00 | 0.00 | 0.00 | 25 | 1016.9 |
| 20260510130058 | 64 | 0 | 0.0 | 2.0 | 0.00 | 0.00 | 0.00 | 24 | 1016.8 |
| 20260510124559 | 64 | 0 | 0.0 | 2.0 | 0.00 | 0.00 | 0.00 | 22 | 1016.6 |
| 20260510123100 | 64 | 0 | 0.0 | 3.0 | 0.00 | 0.00 | 0.00 | 22 | 1016.4 |
| 20260510121555 | 64 | 0 | 2.0 | 6.0 | 0.00 | 0.00 | 0.00 | 23 | 1016.3 |
| 20260510120056 | 64 | 0 | 0.0 | 4.0 | 0.00 | 0.00 | 0.00 | 23 | 1016.3 |
| 20260510114557 | 64 | 214 | 3.0 | 7.0 | 0.00 | 0.00 | 0.00 | 23 | 1016.2 |
| 20260510113054 | 63 | 0 | 1.0 | 3.0 | 0.00 | 0.00 | 0.00 | 24 | 1016.1 |
| 20260510111555 | 64 | 0 | 0.0 | 3.0 | 0.00 | 0.00 | 0.00 | 24 | 1015.8 |
| 20260510110054 | 66 | 0 | 0.0 | 2.0 | 0.00 | 0.00 | 0.00 | 22 | 1015.6 |
| 20260510104555 | 66 | 253 | 2.0 | 3.0 | 0.00 | 0.00 | 0.00 | 22 | 1015.4 |
| 20260510103056 | 67 | 0 | 1.0 | 6.0 | 0.00 | 0.00 | 0.00 | 22 | 1015.4 |
| 20260510101600 | 67 | 0 | 0.0 | 4.0 | 0.00 | 0.00 | 0.00 | 21 | 1015.2 |
| 20260510100125 | 70 | 0 | 1.0 | 4.0 | 0.00 | 0.00 | 0.00 | 20 | 1015.3 |
| 20260510094559 | 69 | 296 | 2.0 | 4.0 | 0.00 | 0.00 | 0.00 | 20 | 1015.2 |
| 20260510093100 | 70 | 250 | 0.0 | 3.0 | 0.00 | 0.00 | 0.00 | 19 | 1015.1 |
| 20260510091557 | 71 | 257 | 2.0 | 8.0 | 0.00 | 0.00 | 0.00 | 18 | 1015.2 |
| 20260510090111 | 73 | 293 | 2.0 | 8.0 | 0.00 | 0.00 | 0.00 | 18 | 1015.0 |
| 20260510084553 | 72 | 221 | 6.0 | 12.0 | 0.00 | 0.00 | 0.00 | 18 | 1014.9 |
| 20260510083102 | 70 | 225 | 6.0 | 11.0 | 0.00 | 0.00 | 0.00 | 19 | 1015.1 |
| 20260510081553 | 69 | 241 | 3.0 | 7.0 | 0.00 | 0.00 | 0.00 | 20 | 1015.2 |
| 20260510080059 | 70 | 38 | 3.0 | 8.0 | 0.00 | 0.00 | 0.00 | 20 | 1015.0 |
| 20260510074554 | 73 | 38 | 0.0 | 4.0 | 0.00 | 0.00 | 0.00 | 18 | 1014.5 |
| 20260510073054 | 74 | 212 | 4.0 | 9.0 | 0.00 | 0.00 | 0.00 | 17 | 1014.5 |
| 20260510071559 | 72 | 238 | 4.0 | 9.0 | 0.00 | 0.00 | 0.00 | 18 | 1014.6 |
| 20260510070101 | 71 | 238 | 2.0 | 7.0 | 0.00 | 0.00 | 0.00 | 19 | 1014.9 |
| 20260510064552 | 74 | 167 | 1.0 | 4.0 | 0.00 | 0.00 | 0.00 | 17 | 1014.6 |
| 20260510063056 | 76 | 0 | 0.0 | 4.0 | 0.00 | 0.00 | 0.00 | 16 | 1014.3 |
| 20260510061556 | 80 | 0 | 2.0 | 10.0 | 0.00 | 0.00 | 0.00 | 14 | 1014.0 |
| 20260510060057 | 80 | 279 | 5.0 | 14.0 | 0.00 | 0.00 | 0.00 | 13 | 1013.8 |
| 20260510054558 | 81 | 270 | 9.0 | 15.0 | 0.00 | 0.00 | 0.00 | 13 | 1013.6 |
| 20260510053056 | 81 | 240 | 8.0 | 16.0 | 0.00 | 0.00 | 0.00 | 13 | 1013.6 |
| 20260510051555 | 81 | 247 | 8.0 | 15.0 | 0.00 | 0.00 | 0.00 | 12 | 1013.6 |
| 20260510050058 | 82 | 241 | 9.0 | 16.0 | 0.00 | 0.00 | 0.00 | 12 | 1013.6 |
| 20260510044558 | 82 | 247 | 8.0 | 16.0 | 0.00 | 0.00 | 0.00 | 13 | 1013.5 |
| 20260510043058 | 82 | 229 | 8.0 | 17.0 | 0.00 | 0.00 | 0.00 | 13 | 1013.2 |
| 20260510041558 | 82 | 252 | 10.0 | 19.0 | 0.00 | 0.00 | 0.00 | 13 | 1013.2 |
| 20260510034604 | 82 | 238 | 8.0 | 17.0 | 0.00 | 0.00 | 0.00 | 13 | 1012.6 |
| 20260510033114 | 83 | 267 | 7.0 | 15.0 | 0.00 | 0.00 | 0.00 | 13 | 1012.5 |
| 20260510031600 | 83 | 230 | 6.0 | 14.0 | 0.00 | 0.00 | 0.00 | 13 | 1012.2 |
| 20260510030058 | 83 | 250 | 9.0 | 15.0 | 0.00 | 0.00 | 0.00 | 13 | 1012.0 |
| 20260510024559 | 84 | 253 | 7.0 | 14.0 | 0.00 | 0.00 | 0.00 | 13 | 1011.8 |
| 20260510023057 | 84 | 230 | 6.0 | 13.0 | 0.00 | 0.00 | 0.00 | 13 | 1011.6 |
| 20260510021557 | 85 | 263 | 7.0 | 12.0 | 0.00 | 0.00 | 0.00 | 12 | 1011.6 |
| 20260510020100 | 85 | 251 | 3.0 | 10.0 | 0.00 | 0.00 | 0.00 | 12 | 1011.5 |
| 20260510014554 | 87 | 225 | 3.0 | 9.0 | 0.00 | 0.00 | 0.00 | 12 | 1011.3 |
| 20260510013059 | 88 | 259 | 7.0 | 15.0 | 0.00 | 0.00 | 0.00 | 11 | 1011.2 |
| 20260510011557 | 89 | 234 | 7.0 | 13.0 | 0.00 | 0.00 | 0.00 | 11 | 1011.2 |
| 20260510010056 | 90 | 248 | 8.0 | 16.0 | 0.00 | 0.00 | 0.00 | 10 | 1011.0 |
| 20260510004600 | 91 | 262 | 8.0 | 15.0 | 0.00 | 0.00 | 0.00 | 11 | 1011.0 |
| 20260510003116 | 91 | 271 | 9.0 | 15.0 | 0.00 | 0.00 | 0.00 | 10 | 1011.1 |
| 20260510001556 | 91 | 282 | 7.0 | 17.0 | 0.00 | 0.00 | 0.00 | 10 | 1011.2 |
| 20260509234611 | 94 | 265 | 7.0 | 16.0 | 0.00 | 0.00 | 0.00 | 9 | 1011.0 |
| 20260509233057 | 95 | 292 | 10.0 | 18.0 | 0.00 | 0.00 | 0.00 | 9 | 1011.0 |
| 20260509231557 | 95 | 220 | 3.0 | 15.0 | 0.00 | 0.00 | 0.00 | 9 | 1011.0 |
| 20260509230108 | 94 | 265 | 3.0 | 9.0 | 0.00 | 0.00 | 0.00 | 10 | 1011.2 |
| 20260509224553 | 95 | 161 | 5.0 | 12.0 | 0.00 | 0.00 | 0.00 | 10 | 1011.5 |
| 20260509223058 | 94 | 200 | 5.0 | 14.0 | 0.00 | 0.00 | 0.00 | 10 | 1011.4 |
| 20260509221555 | 96 | 319 | 5.0 | 13.0 | 0.00 | 0.00 | 0.00 | 9 | 1011.5 |
| 20260509220057 | 96 | 0 | 2.0 | 8.0 | 0.00 | 0.00 | 0.00 | 8 | 1011.9 |
| 20260509214558 | 94 | 281 | 8.0 | 18.0 | 0.00 | 0.00 | 0.00 | 9 | 1012.1 |
| 20260509213102 | 93 | 36 | 4.0 | 9.0 | 0.00 | 0.00 | 0.00 | 9 | 1012.3 |
| 20260509211603 | 93 | 139 | 5.0 | 16.0 | 0.00 | 0.00 | 0.00 | 10 | 1012.3 |
| 20260509204557 | 91 | 180 | 2.0 | 10.0 | 0.00 | 0.00 | 0.00 | 11 | 1012.9 |
| 20260509203059 | 91 | 98 | 7.0 | 13.0 | 0.00 | 0.00 | 0.00 | 11 | 1013.0 |
| 20260509201555 | 94 | 80 | 4.0 | 8.0 | 0.00 | 0.00 | 0.00 | 10 | 1013.1 |
| 20260509194555 | 92 | 71 | 3.0 | 11.0 | 0.00 | 0.00 | 0.00 | 10 | 1013.5 |
| 20260509193056 | 92 | 17 | 5.0 | 9.0 | 0.00 | 0.00 | 0.00 | 10 | 1013.7 |
| 20260509191554 | 92 | 61 | 3.0 | 12.0 | 0.00 | 0.00 | 0.00 | 11 | 1014.0 |
| 20260509190054 | 91 | 63 | 2.0 | 8.0 | 0.00 | 0.00 | 0.00 | 11 | 1014.2 |
| 20260509184556 | 90 | 0 | 2.0 | 11.0 | 0.00 | 0.00 | 0.00 | 11 | 1014.4 |
| 20260509183136 | 89 | 84 | 3.0 | 10.0 | 0.00 | 0.00 | 0.00 | 12 | 1014.6 |
| 20260509181612 | 88 | 37 | 4.0 | 9.0 | 0.00 | 0.00 | 0.00 | 13 | 1014.7 |
| 20260509180101 | 87 | 65 | 4.0 | 9.0 | 0.00 | 0.00 | 0.00 | 14 | 1015.0 |
| 20260509174556 | 86 | 115 | 4.0 | 9.0 | 0.00 | 0.00 | 0.00 | 13 | 1015.1 |
| 20260509173103 | 85 | 76 | 3.0 | 9.0 | 0.00 | 0.00 | 0.00 | 14 | 1015.2 |
| 20260509171559 | 83 | 67 | 3.0 | 8.0 | 0.00 | 0.00 | 0.00 | 14 | 1015.5 |
| 20260509170057 | 82 | 83 | 3.0 | 8.0 | 0.00 | 0.00 | 0.00 | 15 | 1015.6 |
| 20260509164602 | 82 | 50 | 2.0 | 7.0 | 0.00 | 0.00 | 0.00 | 15 | 1015.6 |
| 20260509163101 | 80 | 117 | 1.0 | 8.0 | 0.00 | 0.00 | 0.00 | 17 | 1015.7 |
| 20260509161554 | 79 | 82 | 2.0 | 6.0 | 0.00 | 0.00 | 0.00 | 16 | 1016.0 |
| 20260509160058 | 78 | 59 | 1.0 | 6.0 | 0.00 | 0.00 | 0.00 | 17 | 1016.1 |
| 20260509154557 | 77 | 0 | 3.0 | 5.0 | 0.00 | 0.00 | 0.00 | 17 | 1016.1 |
| 20260509153058 | 76 | 106 | 1.0 | 3.0 | 0.00 | 0.00 | 0.00 | 18 | 1016.1 |